Wind_Speed
27 27 26 26 25 25 25 25 26 26 26 26 26 27 27 28 29 29 29 30 30 30 31 32 32 32 33 33 34 34 35 35 35 36 36 36 37 38 38 39 40 40 41
29 28 27 27 27 26 26 27 27 27 27 27 27 28 29 29 29 30 30 30 30 30 31 32 33 33 34 34 35 35 36 36 36 37 37 38 38 39 40 40 41 41 42
30 29 29 28 28 28 28 28 28 28 28 28 28 29 29 30 30 30 31 31 31 31 32 33 34 34 34 35 35 36 37 37 38 38 39 40 40 40 40 41 42 43 44
31 30 30 29 29 29 29 28 28 28 28 29 29 30 30 31 31 31 31 31 32 33 33 34 34 35 35 36 36 37 38 39 39 39 40 41 42 42 42 42 43 44 44
32 31 31 30 30 30 30 29 29 29 29 30 30 30 30 31 31 31 32 32 33 33 34 35 35 35 36 37 38 38 39 40 40 41 41 42 42 43 44 43 44 44 45
33 32 32 31 31 31 30 30 30 30 30 30 30 31 31 31 31 32 32 33 33 34 35 35 36 36 37 38 38 39 40 41 41 41 42 43 43 44 45 45 45 45 46
33 33 32 32 32 31 31 31 31 31 30 30 31 30 30 31 31 32 33 33 34 34 35 36 36 37 38 38 39 40 41 41 42 42 43 44 44 45 46 47 47 47 47
34 34 34 33 33 32 31 31 31 31 31 31 31 30 31 31 32 32 33 34 34 35 36 36 37 38 39 39 40 41 42 43 43 43 44 45 45 46 47 48 49 49 48
35 35 35 34 33 33 32 32 31 31 31 31 31 31 31 32 32 33 34 35 36 36 37 37 38 39 39 40 41 42 43 44 44 44 45 46 47 47 48 49 50 51 51
36 36 36 35 34 34 33 33 32 31 31 31 31 31 32 32 33 34 35 36 37 37 38 38 39 39 40 41 42 43 44 44 44 45 47 47 48 49 49 50 51 52 53
36 36 36 35 34 34 34 33 33 32 32 32 32 32 33 33 34 35 36 36 37 38 38 39 39 40 41 42 43 43 44 45 46 46 48 49 49 50 50 51 53 54 55
36 36 35 34 34 34 34 34 33 33 33 33 33 33 34 34 35 36 37 37 38 39 39 40 40 41 42 43 44 44 45 46 47 48 49 49 50 51 52 53 54 55 56
35 35 35 35 35 35 35 35 34 34 34 34 34 34 35 35 36 37 38 39 39 40 40 41 41 42 43 44 45 45 46 47 48 49 49 50 51 52 53 55 56 57 58
35 35 36 36 35 35 36 36 35 35 35 35 35 36 36 36 37 38 39 39 40 41 41 42 43 43 44 45 46 46 47 48 49 49 50 51 52 54 55 56 57 58 59
35 35 36 36 36 36 36 36 36 36 36 36 37 37 37 37 38 39 39 40 41 41 42 43 44 45 45 46 47 47 48 49 50 50 51 53 54 55 56 56 57 59 60
36 35 36 36 36 36 36 36 36 36 37 37 38 38 38 38 39 40 40 41 41 42 43 44 45 45 46 47 47 48 49 50 50 52 53 54 54 55 56 57 59 60 61
36 36 35 36 36 37 37 37 37 37 38 38 39 39 39 40 40 41 41 41 42 43 44 45 45 46 47 47 48 49 50 50 51 53 54 55 55 56 57 58 60 61 62
38 37 36 36 37 38 39 39 39 38 39 39 39 40 41 41 41 41 42 43 43 44 45 46 46 47 48 49 49 50 51 51 53 54 55 56 57 58 59 60 61 62 63
38 38 38 38 38 39 39 40 39 39 39 40 40 41 42 42 42 43 43 44 45 45 46 46 47 48 48 49 50 51 52 53 54 55 56 57 58 59 60 61 62 62 63
39 40 40 39 39 39 39 39 39 39 39 40 41 41 42 43 43 43 44 45 45 46 47 47 48 49 49 50 51 53 54 54 55 56 57 58 59 59 60 62 62 62 63
40 40 40 40 40 39 39 39 39 39 40 41 41 42 43 43 43 44 45 45 46 47 47 48 49 50 51 52 53 54 55 56 56 57 57 58 59 60 61 62 62 62 63
41 41 40 40 40 39 39 39 39 40 41 41 42 43 43 43 43 44 45 46 46 47 48 49 50 51 52 53 54 55 56 56 57 57 58 58 59 60 61 61 61 62 63
41 40 40 39 39 39 39 39 40 40 41 41 42 43 43 44 44 45 46 46 47 48 49 50 51 52 53 54 55 55 56 57 57 58 58 58 59 60 60 61 61 62 62
39 39 39 39 38 39 39 40 40 41 41 42 42 43 44 44 45 45 46 47 48 49 50 51 52 52 53 54 55 55 56 57 58 58 58 59 60 60 60 61 61 62 62
38 39 39 39 39 39 40 40 40 41 41 42 43 44 44 44 45 45 46 48 49 50 51 51 52 53 54 54 55 56 57 57 58 58 58 59 60 60 60 61 61 62 61
38 39 40 41 40 40 40 40 41 41 42 43 43 44 44 45 45 46 47 48 49 50 51 52 53 54 54 55 55 56 57 57 58 59 59 59 60 60 60 61 61 61 60
Wind_Direction
263 264 266 268 270 272 274 276 278 280 282 284 286 289 290 292 293 294 296 298 299 299 300 301 301 301 301 301 301 301 301 301 300 300 299 299 299 299 298 298 297 297 296
262 263 265 267 269 271 273 275 277 279 281 282 285 287 289 291 293 295 296 297 298 299 300 301 301 301 301 301 302 301 301 300 300 300 299 299 299 298 298 298 297 297 297
262 263 265 266 268 270 272 275 276 278 279 281 284 286 288 290 292 294 294 295 296 298 299 300 301 301 301 301 301 301 301 301 300 300 300 299 299 298 297 297 297 297 297
261 263 264 265 267 269 271 274 276 277 279 281 283 285 287 289 291 292 293 294 295 297 299 299 300 301 301 301 301 301 301 301 300 299 299 299 299 299 299 298 297 297 297
260 262 263 265 267 269 271 273 275 276 278 280 282 283 286 288 290 291 293 294 296 297 298 299 299 300 301 301 301 301 301 301 300 300 299 299 300 300 300 299 298 297 297
260 261 262 264 266 268 270 272 274 275 278 280 281 283 284 286 288 290 292 294 295 296 297 298 299 299 300 300 301 301 301 301 300 300 299 299 300 300 299 299 299 298 297
259 261 262 264 266 268 269 271 273 274 277 278 280 282 283 285 287 289 291 293 295 296 297 298 299 299 300 300 301 301 301 300 300 300 299 299 300 300 299 300 299 298 298
259 261 262 264 266 268 269 270 271 274 276 277 279 280 283 285 287 289 291 293 294 296 297 298 298 299 300 300 301 301 301 300 300 300 299 299 300 300 300 300 300 299 298
259 261 262 264 265 266 267 268 271 273 275 276 278 280 282 285 287 289 290 292 293 295 296 297 298 299 300 300 301 301 301 300 300 299 299 299 299 299 299 300 300 299 299
259 260 262 263 264 265 266 268 269 271 273 275 278 280 282 284 286 287 289 291 293 294 296 297 298 298 299 300 300 301 301 300 300 299 299 299 299 299 299 299 299 299 299
259 260 261 262 263 264 265 267 269 270 273 275 277 279 281 283 285 287 289 291 293 295 296 297 297 298 299 300 301 301 301 300 300 300 299 299 299 299 299 299 299 299 299
259 260 260 260 262 263 264 266 268 270 273 276 278 279 281 283 285 287 289 291 292 294 296 297 297 298 300 301 301 301 300 300 300 300 300 300 299 299 299 299 299 299 299
258 259 260 260 261 263 264 266 268 270 273 275 277 279 281 283 285 287 288 290 292 294 295 296 297 298 299 300 300 300 300 300 300 300 300 300 300 299 299 299 299 299 299
257 258 259 261 262 263 265 266 268 270 273 275 277 279 281 283 285 286 288 290 292 294 295 296 297 298 299 300 300 300 300 301 301 301 301 300 300 300 300 300 300 300 300
256 258 259 261 263 264 265 266 268 270 272 275 277 279 280 282 284 286 288 290 292 294 295 296 297 298 299 300 300 300 301 301 301 301 302 301 301 301 301 301 301 301 301
254 257 259 261 263 264 265 266 268 270 273 275 277 279 280 282 284 286 288 291 293 294 296 297 298 298 299 300 300 301 301 302 302 302 302 302 302 302 302 302 302 302 302
253 257 259 260 262 264 265 267 269 271 273 275 277 279 280 282 284 286 288 290 292 294 296 297 298 299 299 300 300 301 302 302 303 303 303 303 303 303 303 302 302 302 302
254 257 259 261 262 264 266 268 269 272 274 275 277 279 281 283 285 287 289 291 293 294 296 297 298 299 299 300 301 301 302 303 303 303 303 303 303 303 303 303 303 303 303
255 257 259 261 263 265 267 269 271 273 274 276 278 279 281 284 286 287 289 292 293 294 296 297 298 299 300 300 301 302 302 303 303 303 304 304 304 304 304 304 304 304 304
257 258 259 261 263 266 268 270 272 273 274 276 278 280 282 284 286 288 290 292 293 295 296 297 298 299 300 301 301 302 303 303 304 304 304 305 305 305 305 305 305 305 306
256 258 260 261 264 266 268 270 271 272 274 276 278 280 282 284 287 288 290 292 293 295 296 298 299 300 300 301 302 303 303 304 305 305 305 305 305 305 305 306 306 307 307
256 258 260 262 264 266 268 270 271 272 274 277 279 281 282 285 287 289 290 292 293 295 297 298 299 300 301 302 302 303 304 305 305 306 306 306 306 306 306 307 307 307 308
258 259 260 261 264 266 268 270 271 272 275 277 279 281 283 285 287 289 291 292 294 296 297 298 300 301 301 302 303 304 305 305 306 306 306 306 307 307 307 307 307 308 308
260 260 260 261 263 266 267 269 271 273 275 277 279 282 283 285 287 289 291 293 295 296 297 299 300 301 302 303 303 304 305 306 306 306 307 307 307 308 308 308 308 308 308
260 260 261 262 264 266 268 270 271 273 275 277 280 282 283 285 287 289 292 294 295 297 298 299 301 302 303 303 304 305 306 306 307 307 307 308 308 308 309 309 309 309 309
260 262 263 264 266 267 268 270 271 273 275 278 280 282 284 286 288 290 292 294 296 297 299 300 301 302 303 304 304 305 306 307 308 308 308 309 309 309 309 309 309 309 309
Height
5821 5821 5821 5820 5820 5820 5819 5818 5817 5816 5815 5814 5812 5811 5809 5807 5805 5803 5800 5798 5796 5793 5790 5787 5785 5782 5778 5775 5772 5769 5766 5762 5759 5756 5753 5750 5746 5742 5739 5735 5732 5728 5725
5814 5814 5814 5814 5814 5813 5813 5812 5811 5810 5809 5808 5806 5804 5802 5801 5799 5796 5794 5792 5789 5787 5784 5781 5778 5775 5772 5769 5765 5762 5758 5755 5751 5748 5745 5742 5739 5735 5731 5727 5723 5719 5715
5807 5807 5807 5807 5807 5806 5806 5805 5804 5803 5802 5801 5799 5798 5796 5794 5792 5790 5787 5785 5782 5780 5777 5774 5771 5768 5765 5761 5758 5754 5751 5748 5744 5740 5736 5733 5730 5727 5723 5718 5714 5709 5705
5799 5800 5800 5800 5800 5800 5799 5798 5797 5796 5795 5794 5792 5791 5789 5787 5785 5783 5781 5778 5776 5773 5770 5767 5764 5761 5757 5754 5750 5747 5743 5739 5736 5732 5728 5724 5720 5716 5713 5710 5705 5700 5695
5792 5792 5792 5792 5792 5792 5792 5791 5790 5789 5788 5787 5785 5784 5782 5780 5778 5776 5774 5771 5769 5766 5763 5760 5757 5753 5750 5746 5743 5739 5735 5731 5727 5723 5719 5715 5711 5706 5702 5699 5695 5690 5686
5783 5784 5784 5784 5784 5784 5784 5783 5782 5781 5780 5779 5778 5776 5775 5773 5771 5768 5766 5764 5761 5758 5755 5752 5749 5745 5742 5738 5734 5731 5727 5723 5718 5714 5710 5706 5701 5697 5692 5688 5684 5680 5676
5774 5775 5775 5775 5776 5776 5776 5775 5775 5774 5773 5772 5770 5769 5767 5765 5763 5761 5759 5756 5753 5751 5747 5744 5741 5737 5733 5730 5726 5722 5718 5714 5709 5705 5701 5696 5692 5687 5682 5678 5673 5669 5665
5765 5766 5767 5767 5767 5768 5768 5767 5767 5766 5765 5764 5763 5761 5759 5757 5755 5753 5751 5748 5745 5742 5739 5736 5732 5729 5725 5721 5717 5713 5709 5704 5700 5696 5691 5686 5682 5677 5672 5667 5662 5657 5654
5756 5757 5758 5759 5759 5759 5759 5759 5759 5758 5757 5756 5755 5753 5752 5750 5748 5745 5743 5740 5737 5734 5731 5727 5724 5720 5716 5712 5708 5704 5699 5695 5690 5686 5681 5676 5671 5666 5661 5656 5650 5645 5641
5747 5748 5749 5750 5750 5750 5750 5750 5750 5749 5749 5748 5746 5745 5743 5742 5739 5737 5734 5732 5729 5725 5722 5719 5715 5711 5707 5703 5699 5694 5690 5685 5680 5675 5670 5665 5660 5655 5650 5644 5639 5633 5628
5738 5738 5739 5740 5741 5741 5741 5741 5741 5741 5740 5739 5738 5736 5735 5733 5731 5728 5726 5723 5720 5717 5713 5709 5706 5702 5698 5693 5689 5684 5679 5675 5670 5665 5660 5654 5649 5644 5638 5633 5627 5621 5615
5728 5729 5730 5730 5731 5732 5732 5732 5732 5732 5731 5730 5729 5728 5726 5724 5722 5720 5717 5714 5711 5707 5704 5700 5696 5692 5688 5683 5679 5674 5669 5664 5659 5654 5648 5643 5637 5632 5626 5620 5614 5608 5602
5718 5719 5720 5721 5722 5722 5723 5723 5723 5723 5722 5721 5720 5718 5717 5715 5713 5710 5707 5704 5701 5698 5694 5690 5686 5682 5678 5673 5668 5663 5658 5653 5648 5642 5637 5631 5625 5619 5613 5607 5601 5595 5588
5708 5709 5710 5711 5712 5713 5713 5713 5714 5713 5713 5712 5711 5709 5708 5706 5703 5700 5698 5695 5691 5688 5684 5680 5676 5672 5667 5662 5658 5652 5647 5642 5636 5631 5625 5619 5613 5606 5600 5594 5587 5580 5574
5698 5700 5701 5701 5702 5703 5703 5704 5704 5704 5703 5702 5701 5700 5698 5696 5693 5690 5688 5685 5681 5678 5674 5670 5666 5661 5657 5652 5646 5641 5636 5630 5625 5619 5613 5606 5600 5593 5586 5580 5573 5566 5558
5688 5689 5691 5692 5692 5693 5694 5694 5694 5694 5693 5692 5691 5689 5688 5685 5683 5680 5677 5674 5671 5667 5663 5659 5655 5650 5646 5641 5635 5630 5624 5618 5613 5606 5600 5593 5587 5580 5573 5566 5558 5551 5543
5678 5679 5681 5682 5683 5683 5684 5684 5684 5684 5683 5682 5681 5679 5677 5675 5673 5670 5667 5664 5660 5657 5653 5648 5644 5639 5634 5629 5623 5618 5612 5606 5600 5594 5587 5580 5574 5566 5559 5552 5544 5536 5527
5668 5669 5670 5671 5672 5673 5673 5673 5673 5673 5672 5671 5670 5668 5666 5664 5662 5659 5656 5653 5649 5645 5641 5637 5632 5627 5622 5617 5611 5605 5600 5594 5587 5581 5574 5567 5560 5552 5544 5537 5529 5520 5512
5657 5659 5660 5661 5662 5662 5662 5663 5663 5662 5662 5661 5659 5657 5656 5654 5651 5648 5645 5642 5638 5634 5630 5625 5620 5615 5610 5605 5599 5593 5587 5581 5575 5568 5560 5553 5545 5538 5530 5522 5514 5505 5496
5646 5647 5649 5650 5651 5651 5651 5652 5652 5651 5651 5649 5648 5646 5644 5642 5640 5637 5633 5630 5626 5622 5618 5613 5608 5603 5598 5592 5586 5580 5574 5568 5561 5554 5546 5539 5531 5523 5514 5506 5498 5489 5480
5635 5636 5637 5639 5640 5640 5641 5641 5641 5640 5639 5638 5637 5635 5633 5631 5628 5625 5622 5618 5614 5610 5606 5601 5596 5591 5585 5579 5573 5567 5560 5554 5547 5539 5532 5524 5516 5507 5499 5490 5482 5473 5464
5624 5625 5626 5628 5629 5629 5630 5630 5629 5629 5628 5627 5625 5623 5621 5619 5616 5613 5610 5606 5602 5598 5593 5588 5583 5578 5572 5566 5560 5553 5546 5539 5532 5525 5517 5509 5501 5493 5484 5475 5467 5458 5449
5613 5614 5615 5617 5618 5618 5618 5618 5618 5617 5616 5615 5613 5611 5609 5607 5604 5601 5598 5594 5590 5585 5581 5576 5571 5565 5559 5553 5546 5539 5532 5525 5517 5510 5502 5494 5486 5478 5469 5461 5452 5443 5434
5601 5603 5604 5605 5606 5606 5606 5606 5606 5605 5604 5603 5602 5600 5597 5595 5592 5589 5585 5581 5577 5572 5567 5562 5557 5551 5545 5539 5532 5525 5518 5511 5503 5496 5488 5480 5471 5463 5455 5446 5437 5428 5419
5590 5591 5592 5593 5594 5594 5594 5594 5594 5593 5592 5591 5590 5588 5585 5582 5580 5576 5572 5568 5564 5559 5554 5549 5543 5537 5532 5525 5518 5511 5504 5496 5489 5481 5473 5465 5457 5448 5440 5431 5422 5413 5404
5578 5579 5581 5581 5582 5582 5582 5582 5582 5581 5580 5579 5577 5575 5573 5570 5567 5563 5560 5555 5550 5545 5540 5535 5529 5523 5517 5510 5504 5496 5489 5481 5474 5466 5458 5450 5442 5434 5425 5416 5407 5398 5389